Regional Weather Roundup
Issued by NWS Kansas City/Pleasant Hill, MO

Home | Current Version | Previous Version | Text Only | Print | Product List | Glossary On
Versions: 1 2 3 4 5 6 7 8 9 10 11 12 13 14 15 16 17 18 19 20 21 22 23 24 25 26 27 28
000
ASUS43 KEAX 241910
RWREAX

WEATHER ROUNDUP FOR EASTERN KANSAS AND NORTHWEST MISSOURI
NATIONAL WEATHER SERVICE KANSAS CITY/PLEASANT HILL MO
100 PM CST SAT FEB 24 2018

KSZ040-057-103>105-MOZ028-029-037-043-242000-
...KANSAS CITY METROPOLITAN AREA...

CITY           SKY/WX    TMP DP  RH WIND       PRES   REMARKS
K.C. INTL      CLOUDY    40  39  97 S6        29.74F
K.C. DOWNTOWN  CLOUDY    42  38  85 CALM      29.73F
LEES SUMMIT    LGT RAIN  40  40 100 SE8       29.73F WCI  34
OLATHE - IXD   CLOUDY    40  40 100 CALM      29.72F
OLATHE - OJC   CLOUDY    39  39 100 SE3       29.72F
LAWRENCE       LGT RAIN  40  39  97 W5        29.74F FOG

$$

MOZ001>008-011>017-020>025-030>033-038>040-044>046-053-054-242000-
...NORTHERN AND CENTRAL MISSOURI...

CITY           SKY/WX    TMP DP  RH WIND       PRES   REMARKS
ST. JOSEPH     CLOUDY    37  37 100 W3        29.75F FOG
MOSBY            N/A     39  37  93 S8        29.75F FOG     WCI  34
WARRENSBURG    DRIZZLE   41  39  93 E8        29.73F
WHITEMAN AFB   LGT RAIN  41  39  93 E3        29.71F
CLINTON        RAIN      45  45 100 E8        29.72F VSB 3/4
SEDALIA        FOG       44  44 100 SE7       29.76F VSB 1/4
WARSAW         NOT AVBL
CHILLICOTHE      N/A     38  38 100 SE10      29.75F WCI  31
KIRKSVILLE     CLOUDY    34  34 100 E9        29.77F FOG     WCI  27

$$

MOZ041-047>049-056>058-063>065-088>090-097-242000-
...EASTERN AND SOUTHERN MISSOURI...

CITY           SKY/WX    TMP DP  RH WIND       PRES   REMARKS
ST. LOUIS INTL DRZL/FOG  46  46 100 E10       29.84F VSB 1/4
SPIRIT OF STL  CLOUDY    45  45 100 NE6       29.82F FOG
COLUMBIA       FOG       45  45 100 SE12      29.76F VSB 1
JEFFERSON CITY CLOUDY    46  44  93 E6        29.78F
ROLLA          HVY RAIN  50  50 100 E5        29.79F FOG
OSAGE BEACH    RAIN      52  52 100 CALM      29.77F FOG
SPRINGFIELD    HVY RAIN  52  52 100 NW6       29.74F VSB 3/4
BRANSON        LGT RAIN  50  50 100 E8        29.74F VSB 1/2
JOPLIN         LGT RAIN  48  48 100 CALM      29.71F FOG
WEST PLAINS    HVY RAIN  52  51  97 E5        29.78F FOG

$$

IAZ060-094-KSZ022-034>040-054-083-096-NEZ052-066-093-242000-
...KANSAS...SOUTHEAST NEBRASKA AND IOWA...

CITY           SKY/WX    TMP DP  RH WIND       PRES   REMARKS
TOPEKA         LGT RAIN  38  38 100 W6        29.76F FOG     WCI  33
MANHATTAN      CLOUDY    35  33  92 W5        29.79F FOG     WCI  31
EMPORIA        CLOUDY    35  35 100 SW8       29.76F FOG     WCI  29
CHANUTE        CLOUDY    41  40  96 W8        29.75F
WICHITA        CLOUDY    37  35  92 W8        29.82S WCI  31
OMAHA          FRZ DRZL  29  27  92 CALM      29.80F FOG
LINCOLN        LGT SNOW  27  25  92 CALM      29.81F FOG
FALLS CITY     FOG       31  30  96 W7        29.80S VSB 1   WCI  24
LAMONI         CLOUDY    33  32  96 E8        29.71F FOG     WCI  26
DES MOINES     DRZL/FOG  33  32  96 SE10      29.77F VSB 3/4 WCI  25

$$





USA.gov is the U.S. government's official web portal to all federal, state and local government web resources and services.